Location: Jackson
(42.2460°N, 84.4010°W)
Time: 22:43:45
(UTC-04:00)

ZACube-1 - Visible Passes

Search period start: 16 March 2026 00:00
Search period end: 26 March 2026 00:00
Orbit: 536 x 596 km, 97.8° (Epoch: 16 March)

Date Brightness Start Highest point End Pass type
(mag) Time Alt. Az. Time Alt. Az. Time Alt. Az.
16 Mar ? 04:32:06 10° NNE 04:32:39 13° NNE 04:32:39 13° NNE visible
16 Mar ? 06:08:24 10° NNW 06:08:41 11° NW 06:08:41 11° NW visible
17 Mar ? 04:32:37 10° NNE 04:33:17 14° NNE 04:33:17 14° NNE visible
17 Mar ? 06:08:57 10° NNW 06:09:20 11° NW 06:09:20 11° NW visible
18 Mar ? 04:33:07 10° NNE 04:33:55 15° NNE 04:33:55 15° NNE visible
18 Mar ? 06:09:29 10° NNW 06:09:58 11° NW 06:09:58 11° NW visible
19 Mar ? 04:33:37 10° NNE 04:34:34 16° NNE 04:34:34 16° NNE visible
19 Mar ? 06:10:01 10° NNW 06:10:37 12° NW 06:10:37 12° NW visible
20 Mar ? 04:34:07 10° NNE 04:35:11 17° NNE 04:35:11 17° NNE visible
20 Mar ? 06:10:32 10° NNW 06:11:14 12° NW 06:11:14 12° NW visible
21 Mar ? 04:34:35 10° NNE 04:35:48 18° NNE 04:35:48 18° NNE visible
21 Mar ? 06:11:04 10° NNW 06:11:51 12° NW 06:11:51 12° NW visible
22 Mar ? 04:35:04 10° NNE 04:36:25 20° NNE 04:36:25 20° NNE visible
22 Mar ? 06:11:35 10° NW 06:12:27 12° NW 06:12:27 12° NW visible
23 Mar ? 04:35:33 10° NNE 04:37:01 21° NNE 04:37:01 21° NNE visible
23 Mar ? 06:12:05 10° NW 06:13:03 12° NW 06:13:03 12° NW visible
24 Mar ? 04:36:00 10° NNE 04:37:37 22° NNE 04:37:37 22° NNE visible
24 Mar ? 06:12:35 10° NW 06:13:40 12° NW 06:13:40 12° NW visible
25 Mar ? 04:36:28 10° NNE 04:38:12 24° NNE 04:38:12 24° NNE visible
25 Mar ? 06:13:05 10° NW 06:14:15 12° NW 06:14:15 12° NW visible
